User: anonymous   Login
Location: Bush Observatory
(40.2653°N, 94.3194°W)
Time: 15:51:00
(UTC-06:00)
Language:

Cosmos 1933 Rocket - Orbit

View from above orbital plane
View from above orbital plane
View from above satellite
View from above satellite

Ground track
Ground track

The orbit data is extracted from the following two-line orbital elements,

1 18959U 88020B   16337.92581128  .00000105  00000-0  98828-5 0  9992
2 18959  82.5382  94.2106 0018293  66.7666 293.5473 14.83312880551488
Epoch (UTC): 02 December 2016 22:13:10
Eccentricity: 0.0018293
inclination: 82.5382°
perigee height: 606 km
apogee height: 631 km
right ascension of ascending node: 94.2106°
argument of perigee: 66.7666°
revolutions per day: 14.83312880
mean anomaly at epoch: 293.5473°
orbit number at epoch: 55148

The dashed part of the orbit path shows where the satellite is in the earth's shadow,  

DLR